Regional Weather Roundup
Issued by NWS Upton, NY

Current Version | Previous Version | Graphics & Text | Print | Product List | Glossary Off
Versions: 1 2 3 4 5 6 7 8 9 10 11 12 13 14 15 16 17 18 19 20 21 22 23 24 25 26 27 28 29 30 31 32 33 34 35 36 37 38 39 40 41 42 43 44 45 46 47 48 49 50

946
ASUS41 KOKX 230207
RWROKX

REGIONAL WEATHER ROUNDUP
NATIONAL WEATHER SERVICE NEW YORK NY
1000 PM EDT WED MAR 22 2017

NOTE: "FAIR" INDICATES FEW OR NO CLOUDS BELOW 12,000 FEET WITH NO
SIGNIFICANT WEATHER AND/OR OBSTRUCTIONS TO VISIBILITY.

NYZ071-072-176-178-NJZ106-104-230300-
NEW YORK CITY METRO AREA

CITY           SKY/WX    TMP DP  RH WIND       PRES   REMARKS
Central Park   CLEAR     26  -4  27 MISG      30.42R
Wall St Helipt CLEAR     28   3  34 VRB3      30.42R
LaGuardia APRT CLEAR     29   0  28 N18G26    30.42R WCI  16
Kennedy INTL   CLEAR     27  -7  22 NW28G35   30.42R WCI  11
Breezy Point     N/A    N/A N/A N/A NW16G29     N/A
Newark/Liberty CLEAR     27  -1  30 NW15G26   30.42R WCI  15
Teterboro      CLEAR     27  -1  30 N14G22    30.42R WCI  16
$$

NYZ177-179-078>081-230300-
LONG ISLAND NEW YORK

CITY           SKY/WX    TMP DP  RH WIND       PRES   REMARKS
Jones Beach      N/A    N/A N/A N/A NW23G29     N/A
Matinecock PT    N/A    N/A N/A N/A NW25G31     N/A
Farmingdale    CLEAR     26  -4  27 N17G23    30.39R WCI  13
MacArthur/ISP  CLEAR     25  -2  31 N20G25    30.37R WCI  11
Shirley        CLEAR     24  -4  29 NW18G28   30.38R WCI  10
Westhampton    CLEAR     24  -5  27 N17G24    30.37R WCI  11
East Hampton     N/A     23  -5  28 NW15G25   30.33R WCI  10
Montauk          N/A     27  -1  30 NW16G30   30.32R WCI  15
$$

NYZ052-065-067-230300-
HUDSON VALLEY

CITY           SKY/WX    TMP DP  RH WIND       PRES   REMARKS
White Plains   CLEAR     23  -4  30 NW14      30.36R WCI  11
Newburgh       CLEAR     21   1  42 NW12G23   30.40R WCI   9
Montgomery     CLEAR     21  -3  35 NW9       30.41R WCI  11
Poughkeepsie   CLEAR     21  -4  33 NW9       30.40R WCI  11
Albany         CLEAR     20  -4  34 NW16G23   30.42R WCI   6
$$

NJZ001-105-106-008-010-013-015-019>022-104-230300-
NEW JERSEY

CITY           SKY/WX    TMP DP  RH WIND       PRES   REMARKS
Newark/Liberty CLEAR     27  -1  30 NW15G26   30.42R WCI  15
Teterboro      CLEAR     27  -1  30 N14G22    30.42R WCI  16
Caldwell       CLEAR     25   0  33 NW12G18   30.43R WCI  14
Somerville     CLEAR     26  -1  31 N10G20    30.43R WCI  16
Linden           N/A     27  -2  28 N14G26    30.43R WCI  16
Sussex         CLEAR     22   0  38 NW12G22   30.42R WCI  10
Andover          N/A     21  -1  38 N12G18    30.42R WCI   9
Trenton        CLEAR     27  -1  30 N15G23    30.42R WCI  15
Millville      CLEAR     31   3  30 N9        30.43R WCI  23
Atlantic City  CLEAR     30  -2  25 N14       30.42R WCI  19
Wrightstown    CLEAR     28  -1  28 NW16G24   30.40R WCI  15
Toms River     CLEAR     27   2  34 NW8       30.43R WCI  19
Belmar         CLEAR    N/A N/A N/A NW20G25   30.42R
$$

PAZ047>061-062-071-230300-
EASTERN PENNSYLVANIA

CITY           SKY/WX    TMP DP  RH WIND       PRES   REMARKS
Philadelphia   CLEAR     31  -4  22 N16G28    30.46R WCI  20
Allentown      CLEAR     26   1  34 NW12G22   30.45R WCI  16
Scranton       CLEAR     19   4  51 N7        30.43R WCI  10
$$

CTZ002-004>006-009-010-012-RIZ004-006-007-MAZ004-011-015-230300-
SOUTHERN NEW ENGLAND
 IN CT

CITY           SKY/WX    TMP DP  RH WIND       PRES   REMARKS
Bradley INTL   CLEAR     22  -8  26 NW15G24   30.34R WCI   9
Hartford       CLEAR     23  -3  32 NW13      30.36R WCI  11
Danbury        CLEAR     21  -4  33 NW9       30.37R WCI  11
Wtrbury/Oxford CLEAR     19  -6  32 NW10G22   30.33R WCI   8
Bridgeport     CLEAR     25  -7  24 NW18G25   30.38R WCI  11
Meriden        CLEAR     23  -5  29 NW10G29   30.36R WCI  12
New Haven      CLEAR     23  -4  30 NW14G28   30.37R WCI  11
Chester          N/A     21  -8  27 NW14G20   30.31R WCI   8
Groton         CLEAR     25  -8  23 NW16G29   30.30R WCI  12
Wilimantic     CLEAR     24  -9  23 NW16G24   30.32R WCI  11

 IN RI

CITY           SKY/WX    TMP DP  RH WIND       PRES   REMARKS
Providence     CLEAR     23 -12  21 NW14G35   30.28R WCI  11
Block Island   CLEAR     24  -2  32 NW18G30   30.29R WCI  10
Westerly       CLEAR     25  -9  22 NW15G25   30.30R WCI  13
 IN MA

CITY           SKY/WX    TMP DP  RH WIND       PRES   REMARKS
Boston         CLEAR     20  -7  30 NW23G35   30.27R WCI   3
Worcester      CLEAR     16  -9  32 NW13G29   30.22R WCI   2
Westfield      CLEAR     20  -7  30 NW14G22   30.33R WCI   7
Provincetown   CLEAR     22   6  50 NW28G46   30.23R WCI   4
Nantucket      CLEAR     24  -3  30 NW22G36   30.20R WCI   9
$$

ANZ330-335-338-340-345-350-353-355-230300-
COASTAL MARINE OBSERVATIONS


STATION/POSITION TIME  SKY/WX   TEMP    WIND        PRES    VSBY  WAVE
                                AIR SEA DIR/SP/G                  HT/PER
                 (UTC)          (F)     (DEG/KT/KT) (MB)    (MI)  (FT/S)
NY HARB ENTRANCE 0050            32 42  330/ 25/ 31 1027.9          5/ 5
20 S FIRE ISLAND 0150            30 41  330/ 23/ 29 1027.9          6/ 6
GREAT SOUTH BAY  NOT AVBL
23 SSW MONTAUK P 0050            28 42              1025.3          6/ 6
15 E BARNEGAT LI 0130               42                N/A           6/ 6
HUDSON CANYON    0050            34 45  320/ 27/ 31 1025.8          9/ 7
KINGS POINT      0130            27 38              1029.3
EXECUTION ROCKS  NOT AVBL
CENTRAL LI SOUND 0115            27     320/ 21/ 29   N/A           4/ 5
EASTERN LI SOUND NOT AVBL
ROBBINS REEF     0130            27     320/ 16/ 23 1030.1
$$


>>>>>>>>>>>>>>>>>>>>>>>>>>>> KEY <<<<<<<<<<<<<<<<<<<<<<<<<<<
>                                                          <
>     SKY/WX - Sky Condition/Present Weather               <
>     TMP    - Temperature in Fahrenheit                   <
>     DP     - Dew Point in Fahrenheit                     <
>     RH     - Relative Humidity in Percent                <
>     WIND   - Direction (from) and Speed in MPH           <
>     PRES   - Mean Sea Level Pressure (inches of Hg)      <
>     WCI    - Wind Chill Index                            <
>     VSB    - VISIBILITY IN MILES                         <
>     HX     - HEAT INDEX                                  <
>     TC     - TEMPERATURE IN CELSIUS                      <
>     VRB    - VARIABLE WIND DIRECTION                     <
>                                                          <
>>>>>>>>>>>>>>>>>>>>>>>>>>>> KEY <<<<<<<<<<<<<<<<<<<<<<<<<<<




USA.gov is the U.S. government's official web portal to all federal, state and local government web resources and services.